Tonopah, NV

4:41 AM PDT on September 23, 2017 (GMT -0700)
Tonopah

Weather History for KTPH - November, 2011

Change the Weather History Date:

Sunday, November 6, 2011

  Actual Average Record
Temperature  
Mean Temperature 29 °F 44 °F  
Max Temperature 38 °F 59 °F 74 °F (1980)
Min Temperature 19 °F 30 °F 19 °F (1971)
Degree Days  
Heating Degree Days 36 21  
Month to date heating degree days 190 119  
Since 1 July heating degree days 522 591  
Cooling Degree Days 0 0  
Month to date cooling degree days 0 0  
Year to date cooling degree days 768 783  
Moisture  
Dew Point 22 °F    
Average Humidity 74    
Maximum Humidity 92    
Minimum Humidity 55    
Precipitation  
Precipitation 0.09 in 0.02 in 0.61 in (1963)
Month to date precipitation 0.09 0.08  
Year to date precipitation 3.12 4.57  
Sea Level Pressure  
Sea Level Pressure 29.94 in    
Wind  
Wind Speed 5 mph (NNE)    
Max Wind Speed 14 mph    
Max Gust Speed 17 mph    
Visibility 7 miles    
Events Fog , Snow    
T = Trace of Precipitation, MM = Missing Value Source: NWS Daily Summary

Daily Weather History Graph

Daily Weather History Graph

Search for Another Location

Airport or City:

Trip Planner

Search our weather history database for the weather conditions in past years. The results will help you decide how hot, cold, wet, or windy it might be!

Date:

Astronomy

Nov. 06, 2011 Rise Set
Actual Time 6:19 AM PST 4:44 PM PST
Civil Twilight 5:51 AM PST 5:11 PM PST
Nautical Twilight 5:20 AM PST 5:43 PM PST
Astronomical Twilight 4:49 AM PST 6:13 PM PST
Moon 2:27 PM PST (11/6) 2:33 AM PST (11/6)
Length of Visible Light 11h 20m
Length of Day
10h 24m
Waxing Gibbous, 86% of the Moon is Illuminated
Nov 6
Waxing Gibbous
Nov 10
Full
Nov 18
Last Quarter
Nov 24
New
Dec 2
First Quarter

Hourly Weather History & Observations

Time (PST) Temp. Windchill Dew Point Humidity Pressure Visibility Wind Dir Wind Speed Gust Speed Precip Events Conditions
12:56 AM 19.0 °F 9.0 °F 10.0 °F 68% 29.94 in 10.0 mi North 8.1 mph - N/A   Clear
1:56 AM 19.9 °F 10.1 °F 10.0 °F 65% 29.93 in 10.0 mi North 8.1 mph - N/A   Partly Cloudy
1:56 AM 21.9 °F 13.4 °F 10.9 °F 63% 29.91 in 10.0 mi North 6.9 mph - N/A   Overcast
2:56 AM 24.1 °F 16.0 °F 12.0 °F 60% 29.91 in 10.0 mi North 6.9 mph - N/A   Overcast
3:56 AM 26.1 °F 18.4 °F 12.9 °F 58% 29.90 in 10.0 mi North 6.9 mph - N/A   Overcast
4:56 AM 26.1 °F 21.9 °F 14.0 °F 60% 29.91 in 10.0 mi North 3.5 mph - N/A   Overcast
5:56 AM 26.1 °F 19.4 °F 19.0 °F 75% 29.93 in 10.0 mi North 5.8 mph - 0.00 in   Overcast
6:07 AM 24.8 °F 19.1 °F 21.2 °F 86% 29.88 in 2.5 mi North 4.6 mph - 0.00 in Snow Light Snow
6:36 AM 24.8 °F 15.3 °F 23.0 °F 93% 29.88 in 3.0 mi North 9.2 mph - 0.00 in Snow Light Snow
6:49 AM 24.8 °F 16.1 °F 23.0 °F 93% 29.88 in 4.0 mi NNE 8.1 mph - 0.00 in Snow Light Snow
6:56 AM 25.0 °F 15.5 °F 23.0 °F 92% 29.95 in 6.0 mi NNE 9.2 mph - 0.00 in Snow Light Snow
7:56 AM 27.0 °F 20.5 °F 24.1 °F 89% 29.98 in 8.0 mi NNE 5.8 mph - 0.00 in Snow Light Snow
8:17 AM 26.6 °F 20.0 °F 24.8 °F 93% 29.91 in 1.8 mi NNE 5.8 mph - 0.00 in Snow Light Snow
8:38 AM 26.6 °F 20.0 °F 24.8 °F 93% 29.92 in 0.8 mi NNE 5.8 mph - 0.01 in Snow Light Snow
8:56 AM 27.0 °F 21.6 °F 25.0 °F 92% 30.01 in 0.2 mi NE 4.6 mph - 0.03 in Fog , Snow Heavy Snow
9:12 AM 26.6 °F 21.2 °F 26.6 °F 100% 29.92 in 0.2 mi NNE 4.6 mph - 0.03 in Fog , Snow Heavy Snow
9:26 AM 28.4 °F 23.3 °F 26.6 °F 93% 29.92 in 0.5 mi NNE 4.6 mph - 0.05 in Fog , Snow Snow
9:37 AM 28.4 °F 23.3 °F 26.6 °F 93% 29.92 in 1.0 mi NNE 4.6 mph - 0.05 in Snow Light Snow
9:45 AM 30.2 °F 26.7 °F 26.6 °F 86% 29.93 in 2.0 mi North 3.5 mph - 0.06 in Snow Light Snow
9:51 AM 28.4 °F 24.6 °F 26.6 °F 93% 29.93 in 3.0 mi North 3.5 mph - 0.06 in Snow Light Snow
9:56 AM 28.9 °F 25.2 °F 27.0 °F 92% 30.01 in 4.0 mi North 3.5 mph - 0.06 in Snow Light Snow
10:07 AM 30.2 °F 26.7 °F 26.6 °F 86% 29.93 in 9.0 mi NNE 3.5 mph - 0.00 in   Overcast
11:56 AM 32.0 °F - 26.1 °F 79% 29.97 in 9.0 mi Calm Calm - 0.00 in Snow Light Snow
1:56 PM 36.0 °F - 27.0 °F 70% 29.94 in 10.0 mi Calm Calm - N/A   Mostly Cloudy
2:56 PM 37.9 °F - 25.0 °F 60% 29.92 in 10.0 mi Calm Calm - N/A   Mostly Cloudy
3:56 PM 37.9 °F 35.5 °F 24.1 °F 57% 29.92 in 10.0 mi SSE 3.5 mph - N/A   Clear
4:56 PM 35.1 °F 29.3 °F 26.1 °F 70% 29.94 in 10.0 mi South 6.9 mph - N/A   Mostly Cloudy
5:56 PM 32.0 °F - 26.1 °F 79% 29.98 in 10.0 mi Calm Calm - N/A   Clear
6:56 PM 28.9 °F - 26.1 °F 89% 30.01 in 10.0 mi Calm Calm - N/A   Clear
9:56 PM 26.1 °F 16.2 °F 21.9 °F 84% 30.04 in 10.0 mi North 10.4 mph - N/A   Partly Cloudy
10:56 PM 25.0 °F 16.3 °F 21.0 °F 85% 30.05 in 10.0 mi North 8.1 mph - N/A   Clear